{"data":{"norad_id":56225,"epoch":"2026-05-25T03:21:51.515712Z","epoch_age_seconds":58974,"freshness":"FRESH","line1":"1 56225U 23054AZ  26145.14017958  .00001681  00000+0  10032-3 0  9991","line2":"2 56225  97.3720  22.3062 0009226 195.1290 164.9666 15.12426537171880","mean_motion":15.12426537,"eccentricity":0.0009226,"inclination_deg":97.372,"raan_deg":22.3062,"arg_perigee_deg":195.129,"mean_anomaly_deg":164.9666,"bstar":0.00010032,"rev_number":17188,"period_min":95.211236035063,"perigee_km":522.43010730068,"apogee_km":535.17479197315,"semimajor_km":6906.9394496369,"source":"CELESTRAK","updated_at":"2026-05-25T13:37:59.401432Z"}}